CHINASAT 18 (ZX 18) (44493 NORAD) Tracking and Keplerian Element Data

This shows tracking and keplerian element data for the satellite.

Feedback or suggestion? Click here.




ElementValue
Catalog44493
NameCHINASAT 18 (ZX 18)
Epoch Orbit63
Epoch Day258.86991647
Epoch Year2019
RAAN135.4603
Inclination28.4762
Eccentricity0.7287135
Argument of Perigee195.8405
Mean Anonmoly136.1702
Mean Motion2.2809049
Decay Rate-1.01E-06
L11 44493U 19053A 19258.86991647 -.00000101 00000-0 00000+0 0 9999
L22 44493 28.4762 135.4603 7287135 195.8405 136.1702 2.28090490 635

Live tracking and technical data element details for CHINASAT 18 (ZX 18) (NORAD 44493). CHINASAT 18 (ZX 18) can be tracked NOW for your location showing map with azimuth and elevation plus other details from your city location.

Track the satellite on the map from your city or location and see movement details for azimuth, elevation, latitude, longitude, range, height, and movement on the map or in text.







IsCatalogInMostPopularTable: catalog: 44493, numindb: 14
Update: records affected: 1



GetName: 44493 CHINASAT 18 (ZX 18)

Hit Count: updated at: Thu, 19 Sep 2019 17:45:02 GMT